Terug naar catalogus

STARLINK-2740

ActiefCommunicatieVLEO
NORAD 48690·PAYLOAD·🇺🇸 United States

Gelanceerd May 26, 2021 vanaf Cape Canaveral Space Force Station

Loading…

Volgende Passages (komende 24 uur)

TLE

VersSource: CelesTrak SupGP

Epoch: Sep 15, 2026, 01:30 UTC

1 48690C 21044BE  26258.06298611  .00016551  00000+0  53197-3 0  2587
2 48690  53.1585 274.0235 0001458  92.8784   3.5420 15.31710321    14

Volg STARLINK-2740 in realtime met AllMySat

Download on the App Store